Location: Gönnheim
(49.4488°N, 8.2383°E)
Time: 06:56:19
(UTC+00:00)

Exosat Rocket - Pass Details

Date: 19 May 2025
Orbit: 761 x 2512 km, 72.3° (Epoch: 22 June)

Event Time Altitude Azimuth Distance (km) Brightness Sun altitude
Rises 23:10:03 0° 331° (NNW) 3,347 7.9 -20.5°
Reaches altitude 10° 23:12:30 10° 328° (NNW) 2,341 6.9 -20.5°
Maximum altitude 23:17:28 63° 248° (WSW) 855 3.6 -20.6°
Enters shadow 23:18:55 44° 189° (S) 1,071 3.8 -20.6°
